When you browse on this site, cookies collect data to enhance your experience and personalize the content and advertising you see.
Visit our Privacy Policy to learn more. By continuing to use the site, you agree to this use of cookies and data.
  • en Suisse
  • Liste des pays
  • À 7 jours
  • Température de l'eau
  • Carte satellitaire
  • Carte météo
  • Widgets météo
  • user-avatar
    Se connecter

    Météo par heure à Plavs'ke

    Ce jour, 23 Juillet, Mardi

    Heure Température Précipitation Vent Pression Humidité
    00:00 +25°C° 0 mm 2 m/s 758 mmHg 52%
    01:00 +25°C° 0 mm 2 m/s 758 mmHg 53%
    02:00 +24°C° 0 mm 1 m/s 757 mmHg 54%
    03:00 +24°C° 0 mm 1 m/s 757 mmHg 55%
    04:00 +24°C° 0 mm 1 m/s 757 mmHg 56%
    05:00 +24°C° 0 mm 1 m/s 757 mmHg 57%
    06:00 +25°C° 0 mm 1 m/s 757 mmHg 53%
    07:00 +27°C° 0 mm 1 m/s 757 mmHg 50%
    08:00 +28°C° 0 mm 1 m/s 757 mmHg 47%
    09:00 +29°C° 0 mm 1 m/s 756 mmHg 43%
    10:00 +30°C° 0 mm 1 m/s 756 mmHg 40%
    11:00 +32°C° 0 mm 2 m/s 756 mmHg 37%
    12:00 +30°C° 0.2 mm 2 m/s 756 mmHg 42%
    13:00 +29°C° 0.2 mm 3 m/s 756 mmHg 48%
    14:00 +28°C° 0.2 mm 4 m/s 755 mmHg 54%
    15:00 +27°C° 0.5 mm 4 m/s 755 mmHg 58%
    16:00 +27°C° 0.5 mm 4 m/s 755 mmHg 62%
    17:00 +26°C° 0.5 mm 4 m/s 755 mmHg 65%
    18:00 +25°C° 0.6 mm 3 m/s 755 mmHg 68%
    19:00 +25°C° 0.6 mm 2 m/s 755 mmHg 71%
    20:00 +24°C° 0.6 mm 1 m/s 755 mmHg 74%
    21:00 +23°C° 0.8 mm 1 m/s 755 mmHg 77%
    22:00 +23°C° 0.8 mm 2 m/s 755 mmHg 79%
    23:00 +21°C° 0.8 mm 2 m/s 755 mmHg 81%

    Demain, 24 Juillet, Mercredi

    Heure Température Précipitation Vent Pression Humidité
    00:00 +21°C° 0.6 mm 2 m/s 755 mmHg 82%
    01:00 +21°C° 0.6 mm 3 m/s 755 mmHg 83%
    02:00 +20°C° 0.6 mm 3 m/s 754 mmHg 84%
    03:00 +20°C° 0 mm 3 m/s 754 mmHg 84%
    04:00 +20°C° 0 mm 3 m/s 754 mmHg 84%
    05:00 +20°C° 0 mm 2 m/s 754 mmHg 84%
    06:00 +22°C° 0 mm 3 m/s 754 mmHg 77%
    07:00 +24°C° 0 mm 3 m/s 754 mmHg 70%
    08:00 +25°C° 0 mm 4 m/s 754 mmHg 63%
    09:00 +27°C° 0 mm 4 m/s 754 mmHg 56%
    10:00 +28°C° 0 mm 3 m/s 754 mmHg 49%
    11:00 +30°C° 0 mm 3 m/s 754 mmHg 42%
    12:00 +30°C° 0 mm 3 m/s 754 mmHg 40%
    13:00 +30°C° 0 mm 3 m/s 754 mmHg 39%
    14:00 +30°C° 0 mm 3 m/s 754 mmHg 38%
    15:00 +30°C° 0 mm 3 m/s 754 mmHg 36%
    16:00 +30°C° 0 mm 3 m/s 754 mmHg 35%
    17:00 +30°C° 0 mm 3 m/s 754 mmHg 34%
    18:00 +28°C° 0 mm 3 m/s 754 mmHg 38%
    19:00 +27°C° 0 mm 3 m/s 754 mmHg 42%
    20:00 +25°C° 0 mm 3 m/s 754 mmHg 46%
    21:00 +24°C° 0 mm 3 m/s 755 mmHg 50%
    22:00 +24°C° 0 mm 3 m/s 755 mmHg 54%
    23:00 +22°C° 0 mm 3 m/s 755 mmHg 58%

    Après-demain, 25 Juillet, Jeudi

    Heure Température Précipitation Vent Pression Humidité
    00:00 +21°C° 0 mm 3 m/s 755 mmHg 62%
    01:00 +21°C° 0 mm 3 m/s 755 mmHg 65%
    02:00 +20°C° 0 mm 2 m/s 755 mmHg 69%
    03:00 +20°C° 0 mm 3 m/s 755 mmHg 72%
    04:00 +20°C° 0 mm 3 m/s 755 mmHg 76%
    05:00 +20°C° 0 mm 3 m/s 755 mmHg 79%
    06:00 +21°C° 0 mm 3 m/s 755 mmHg 73%
    07:00 +24°C° 0 mm 3 m/s 755 mmHg 66%
    08:00 +25°C° 0 mm 4 m/s 755 mmHg 59%
    09:00 +27°C° 0 mm 4 m/s 755 mmHg 53%
    10:00 +28°C° 0 mm 4 m/s 755 mmHg 48%
    11:00 +29°C° 0 mm 5 m/s 756 mmHg 42%
    12:00 +30°C° 0 mm 5 m/s 755 mmHg 39%
    13:00 +30°C° 0 mm 5 m/s 755 mmHg 36%
    14:00 +32°C° 0 mm 5 m/s 755 mmHg 33%
    15:00 +32°C° 0 mm 5 m/s 755 mmHg 34%
    16:00 +30°C° 0 mm 5 m/s 755 mmHg 35%
    17:00 +30°C° 0 mm 5 m/s 755 mmHg 37%
    18:00 +28°C° 0 mm 4 m/s 755 mmHg 40%
    19:00 +27°C° 0 mm 3 m/s 755 mmHg 43%
    20:00 +25°C° 0 mm 3 m/s 756 mmHg 46%
    21:00 +25°C° 0 mm 3 m/s 756 mmHg 50%
    22:00 +24°C° 0 mm 3 m/s 756 mmHg 54%
    23:00 +22°C° 0 mm 3 m/s 756 mmHg 58%

    26 Juillet, Vendredi

    Heure Température Précipitation Vent Pression Humidité
    00:00 +21°C° 0 mm 3 m/s 756 mmHg 62%
    01:00 +21°C° 0 mm 3 m/s 756 mmHg 66%
    02:00 +20°C° 0 mm 3 m/s 756 mmHg 70%
    03:00 +20°C° 0 mm 3 m/s 756 mmHg 72%
    04:00 +19°C° 0 mm 3 m/s 756 mmHg 73%
    05:00 +19°C° 0 mm 3 m/s 756 mmHg 75%
    06:00 +21°C° 0 mm 3 m/s 756 mmHg 67%
    07:00 +24°C° 0 mm 3 m/s 756 mmHg 59%
    08:00 +26°C° 0 mm 3 m/s 756 mmHg 50%
    09:00 +27°C° 0 mm 3 m/s 756 mmHg 46%
    10:00 +28°C° 0 mm 3 m/s 756 mmHg 41%
    11:00 +30°C° 0 mm 3 m/s 756 mmHg 36%
    12:00 +30°C° 0 mm 3 m/s 756 mmHg 33%
    13:00 +31°C° 0 mm 3 m/s 755 mmHg 31%
    14:00 +33°C° 0 mm 3 m/s 755 mmHg 29%
    15:00 +33°C° 0 mm 3 m/s 755 mmHg 30%
    16:00 +32°C° 0 mm 4 m/s 755 mmHg 30%
    17:00 +32°C° 0 mm 4 m/s 754 mmHg 31%
    18:00 +30°C° 0 mm 4 m/s 755 mmHg 36%
    19:00 +28°C° 0 mm 4 m/s 755 mmHg 42%
    20:00 +26°C° 0 mm 4 m/s 755 mmHg 48%
    21:00 +26°C° 0 mm 4 m/s 755 mmHg 52%
    22:00 +25°C° 0 mm 4 m/s 754 mmHg 56%
    23:00 +23°C° 0 mm 4 m/s 754 mmHg 59%

    27 Juillet, Samedi

    Heure Température Précipitation Vent Pression Humidité
    00:00 +22°C° 0 mm 3 m/s 754 mmHg 61%
    01:00 +22°C° 0 mm 3 m/s 754 mmHg 63%
    02:00 +21°C° 0 mm 3 m/s 754 mmHg 65%
    03:00 +21°C° 0 mm 2 m/s 753 mmHg 66%
    04:00 +21°C° 0 mm 2 m/s 753 mmHg 66%
    05:00 +21°C° 0 mm 2 m/s 753 mmHg 67%
    06:00 +24°C° 0 mm 2 m/s 753 mmHg 62%
    07:00 +26°C° 0 mm 2 m/s 753 mmHg 56%
    08:00 +28°C° 0 mm 3 m/s 753 mmHg 51%
    09:00 +29°C° 0 mm 3 m/s 753 mmHg 47%
    10:00 +30°C° 0 mm 3 m/s 753 mmHg 43%
    11:00 +32°C° 0 mm 4 m/s 753 mmHg 40%
    12:00 +32°C° 0.1 mm 4 m/s 753 mmHg 43%
    13:00 +30°C° 0.1 mm 5 m/s 752 mmHg 46%
    14:00 +30°C° 0.1 mm 5 m/s 752 mmHg 49%
    15:00 +29°C° 0.4 mm 4 m/s 752 mmHg 52%
    16:00 +28°C° 0.4 mm 4 m/s 752 mmHg 56%
    17:00 +28°C° 0.4 mm 3 m/s 752 mmHg 59%
    18:00 +27°C° 0.2 mm 3 m/s 752 mmHg 63%
    19:00 +26°C° 0.2 mm 2 m/s 752 mmHg 66%
    20:00 +25°C° 0.2 mm 2 m/s 752 mmHg 70%
    21:00 +24°C° 0 mm 2 m/s 752 mmHg 70%
    22:00 +24°C° 0 mm 2 m/s 751 mmHg 70%
    23:00 +24°C° 0 mm 3 m/s 751 mmHg 71%

    28 Juillet, Dimanche

    Heure Température Précipitation Vent Pression Humidité
    00:00 +24°C° 0 mm 2 m/s 751 mmHg 73%
    01:00 +23°C° 0 mm 2 m/s 751 mmHg 75%
    02:00 +23°C° 0 mm 2 m/s 751 mmHg 78%
    03:00 +23°C° 0 mm 2 m/s 751 mmHg 79%
    04:00 +23°C° 0 mm 2 m/s 750 mmHg 80%
    05:00 +23°C° 0 mm 2 m/s 750 mmHg 81%
    06:00 +24°C° 0 mm 2 m/s 750 mmHg 74%
    07:00 +26°C° 0 mm 2 m/s 750 mmHg 66%
    08:00 +28°C° 0 mm 2 m/s 750 mmHg 59%
    09:00 +29°C° 0 mm 3 m/s 750 mmHg 52%
    10:00 +31°C° 0 mm 3 m/s 750 mmHg 46%
    11:00 +33°C° 0 mm 4 m/s 750 mmHg 39%
    12:00 +33°C° 0 mm 4 m/s 750 mmHg 39%
    13:00 +34°C° 0 mm 4 m/s 750 mmHg 38%
    14:00 +34°C° 0 mm 4 m/s 749 mmHg 37%
    15:00 +32°C° 1 mm 4 m/s 749 mmHg 47%
    16:00 +29°C° 1 mm 4 m/s 749 mmHg 56%
    17:00 +27°C° 1 mm 4 m/s 749 mmHg 65%
    18:00 +26°C° 0.2 mm 3 m/s 749 mmHg 68%
    19:00 +25°C° 0.2 mm 2 m/s 749 mmHg 71%
    20:00 +25°C° 0.2 mm 2 m/s 749 mmHg 74%
    21:00 +25°C° 0 mm 2 m/s 749 mmHg 72%
    22:00 +25°C° 0 mm 2 m/s 749 mmHg 71%
    23:00 +25°C° 0 mm 3 m/s 749 mmHg 69%
    Voir plus